Home > Weather > Christiansted > Past weeks

Flag for US Virgin Islands Past Weather in Christiansted, US Virgin Islands — Yesterday and Last 2 Weeks

Now
86 °F

Scattered clouds.


Feels Like: 95 °F
Forecast: N/A
Wind: 13 mph from Northeast

Location: Christiansted / Henry E. Rohlsen Airport - Saint Croix

Current Time: Jul 25, 2016 at 6:18:21 PM

Latest Report: Jul 25, 2016 at 5:53 PM


Visibility: 10 mi

Pressure: 29.97 "Hg

Humidity: 70%

Dew Point: 75 °F

Location of ChristianstedLocation

Past Weather in Christiansted — Graph

°F

Christiansted Temperature Yesterday

Maximum temperature yesterday: 89 °F (at 2:53 PM)
Minimum temperature yesterday: 78 °F (at 2:53 AM)
Average temperature yesterday: 83 °F

High & Low Weather Summary for the Past Weeks

 TemperatureHumidityPressure
High90 °F (Jul 15, 10:53 AM)94% (Jul 21, 2:29 AM)30.11 "Hg (Jul 21, 2:29 AM)
Low76 °F (Jul 25, 4:53 AM)56% (Jul 22, 3:53 PM)29.95 "Hg (Jul 18, 4:53 PM)
Average84 °F76%30.02 "Hg
* Reported Jul 10 4:53 PM — Jul 25 4:53 PM, Christiansted, Weather by CustomWeather, © 2016

Note: Actual official high and low records may vary slightly from our data, if they occured in-between our weather recording intervals... More about our weather records

Advertising

Christiansted Weather History for the Previous 24 Hours

Scroll right to see more
 ConditionsComfort  
Time TempWeatherWind HumidityBarometerVisibility
4:53 PM
Mon, Jul 25
86 °FScattered clouds.14 mph72%29.96 "Hg10 mi
3:53 PM86 °FLight rain. Scattered clouds.10 mph72%29.97 "Hg10 mi
2:53 PM87 °FLight rain. Passing clouds.10 mph67%29.98 "Hg10 mi
1:53 PM89 °FScattered clouds.15 mph65%29.99 "Hg10 mi
12:53 PM89 °FScattered clouds.18 mph68%30.01 "Hg10 mi
11:53 AM89 °FPassing clouds.16 mph65%30.02 "Hg10 mi
10:53 AM89 °FPassing clouds.22 mph63%30.03 "Hg10 mi
9:53 AM87 °FScattered clouds.14 mph69%30.02 "Hg10 mi
8:53 AM85 °FScattered clouds.16 mph70%30.02 "Hg10 mi
7:53 AM84 °FPassing clouds.12 mph77%30.01 "Hg10 mi
6:53 AM81 °FPassing clouds.9 mph85%30.01 "Hg10 mi
5:53 AM78 °FPassing clouds.6 mph90%29.99 "Hg10 mi
4:53 AM76 °FPassing clouds.7 mph94%29.99 "Hg10 mi
3:53 AM77 °FPartly cloudy.7 mph88%29.99 "Hg10 mi
2:53 AM81 °FPassing clouds.8 mph79%29.98 "Hg10 mi
1:53 AM81 °FClear.9 mph82%29.99 "Hg10 mi
12:53 AM81 °FPassing clouds.9 mph82%30.00 "Hg10 mi
11:53 PM
Sun, Jul 24
81 °FPassing clouds.8 mph79%30.02 "Hg10 mi
10:53 PM82 °FPassing clouds.8 mph79%30.03 "Hg10 mi
8:53 PM82 °FClear.12 mph74%30.01 "Hg10 mi
6:53 PM83 °FScattered clouds.14 mph74%29.98 "Hg10 mi
6:33 PM83 °FScattered clouds.15 mph74%29.99 "Hg10 mi
6:20 PM84 °FPartly sunny.15 mph70%29.99 "Hg10 mi
Weather by CustomWeather, © 2016

See weather overviewHow to use our weather pages